Weather History for Beaufort MCAS, SC

Change the Weather History Date:

Saturday, November 17, 2012

  Actual Average Record
Temperature  
Mean Temperature 50 °F -  
Max Temperature 57 °F 67 °F 85 °F (1964)
Min Temperature 43 °F 48 °F 28 °F (1936)
Degree Days  
Heating Degree Days 15    
Moisture  
Dew Point 42 °F    
Average Humidity 72    
Maximum Humidity 83    
Minimum Humidity 53    
Precipitation  
Precipitation 0.00 in - - ()
Sea Level Pressure  
Sea Level Pressure 30.31 in    
Wind  
Wind Speed 10 mph (NNE)    
Max Wind Speed 15 mph    
Max Gust Speed 18 mph    
Visibility 10 miles    
Events      
Averages and records for this station are not official NWS values.
T = Trace of Precipitation, MM = Missing Value Source: NWS Daily Summary

Daily Weather History Graph

Daily Weather History Graph

Search for Another Location

Airport:

Trip Planner

Search our weather history database for the weather conditions in past years. The results will help you decide how hot, cold, wet, or windy it might be!

Date:

Astronomy

Nov. 17, 2012 Rise Set
Actual Time 6:54 AM EST 5:20 PM EST
Civil Twilight 6:28 AM EST 5:47 PM EST
Nautical Twilight 5:58 AM EST 6:16 PM EST
Astronomical Twilight 5:29 AM EST 6:46 PM EST
Moon 10:38 AM EST (11/17) 9:28 PM EST (11/17)
Length of Visible Light 11h 18m
Length of Day
10h 26m
Waxing Crescent, 20% of the Moon is Illuminated
Nov 17
Waxing Crescent
Nov 20
First Quarter
Nov 28
Full
Dec 6
Last Quarter
Dec 13
New

Hourly Weather History & Observations

Time (EST) Temp. Windchill Dew Point Humidity Pressure Visibility Wind Dir Wind Speed Gust Speed Precip Events Conditions
12:56 AM 48.0 °F - 43.0 °F 83% 30.29 in 10.0 mi NNE 9.2 mph - N/A   Clear
1:56 AM 48.0 °F - 42.1 °F 80% 30.29 in 10.0 mi ENE 8.1 mph - N/A   Clear
2:56 AM 46.9 °F - 42.1 °F 83% 30.29 in 10.0 mi NNE 10.4 mph - N/A   Clear
3:56 AM 45.0 °F 40.6 °F 39.9 °F 82% 30.29 in 10.0 mi ENE 8.1 mph - N/A   Clear
4:56 AM 44.1 °F 38.6 °F 39.0 °F 82% 30.29 in 10.0 mi NE 10.4 mph - N/A   Clear
5:56 AM 44.1 °F 38.1 °F 39.0 °F 82% 30.31 in 10.0 mi NE 11.5 mph - N/A   Clear
6:56 AM 43.0 °F 38.2 °F 37.9 °F 82% 30.32 in 10.0 mi NNE 8.1 mph - N/A   Clear
7:56 AM 43.0 °F 38.8 °F 37.9 °F 82% 30.34 in 10.0 mi NNE 6.9 mph - N/A   Clear
8:56 AM 46.0 °F 41.0 °F 39.0 °F 76% 30.35 in 10.0 mi NE 10.4 mph 18.4 mph N/A   Clear
9:56 AM 50.0 °F - 41.0 °F 71% 30.35 in 10.0 mi NNE 10.4 mph - N/A   Clear
10:56 AM 52.0 °F - 41.0 °F 66% 30.34 in 10.0 mi NNE 12.7 mph - N/A   Clear
11:56 AM 55.0 °F - 41.0 °F 59% 30.33 in 10.0 mi NNE 10.4 mph - N/A   Clear
12:56 PM 57.9 °F - 41.0 °F 53% 30.32 in 10.0 mi NNE 13.8 mph - N/A   Clear
1:56 PM 57.0 °F - 41.0 °F 55% 30.30 in 10.0 mi NNE 15.0 mph - N/A   Clear
2:56 PM 57.9 °F - 42.1 °F 56% 30.29 in 10.0 mi NNE 10.4 mph - N/A   Clear
3:56 PM 55.9 °F - 43.0 °F 62% 30.30 in 10.0 mi NNE 8.1 mph - N/A   Clear
4:56 PM 54.0 °F - 42.1 °F 64% 30.32 in 10.0 mi NNE 11.5 mph - N/A   Clear
5:22 PM 53.6 °F - 42.8 °F 67% 30.32 in 10.0 mi NNE 8.1 mph - N/A   Mostly Cloudy
5:56 PM 54.0 °F - 44.1 °F 69% 30.32 in 10.0 mi NNE 15.0 mph - N/A   Overcast
6:56 PM 53.1 °F - 45.0 °F 74% 30.33 in 10.0 mi NE 10.4 mph - N/A   Overcast
7:56 PM 53.1 °F - 45.0 °F 74% 30.33 in 10.0 mi NNE 10.4 mph - N/A   Overcast
8:56 PM 53.1 °F - 45.0 °F 74% 30.32 in 10.0 mi NNE 9.2 mph - N/A   Overcast
9:56 PM 54.0 °F - 45.0 °F 72% 30.32 in 10.0 mi NNE 8.1 mph - N/A   Overcast
10:56 PM 54.0 °F - 45.0 °F 72% 30.32 in 10.0 mi NNE 10.4 mph - N/A   Overcast
11:42 PM 53.6 °F - 44.6 °F 72% 30.30 in 10.0 mi NNE 10.4 mph - N/A   Overcast
11:56 PM 53.1 °F - 45.0 °F 74% 30.30 in 10.0 mi NNE 11.5 mph - N/A   Mostly Cloudy